Date,Time,Air Temperature,Dewpoint,Windchill,Heat Index,RH,3m Max Wind Speed,3m Mean Wind Speed,3m Wind Direction,Rain,Solar Radiation
,,F,F,F,F,%,MPH,MPH,deg,in,MJ/m^2
2024-05-13,19:25,83.7,18.2,83.7,83.7,8.7,1.7,0.9,190.4,0.0,0.0174397
2024-05-13,19:30,83.5,18.6,83.5,83.5,9.0,2.2,1.8,129.1,0.0,0.01008694
2024-05-13,19:35,82.7,19,82.7,82.7,9.4,1.7,1.2,146.1,0.0,0.005299845
2024-05-13,19:40,82.2,17.2,82.2,82.2,8.8,2.6,2,140.8,0.0,0.006462377
2024-05-13,19:45,82,17,82.0,82,8.8,2.4,1.6,143.1,0.0,0.00340606
2024-05-13,19:50,81.4,19.5,81.4,81.4,10.0,1.3,0.3,91.8,0.0,0.002420753
2024-05-13,19:55,80.7,20.9,80.7,80.7,10.8,1.2,0.5,124.4,0.0,0.001601874
2024-05-13,20:00,80.3,20.5,80.3,80.3,10.8,1.9,1.4,149.8,0.0,0.001037868
2024-05-13,20:05,79.5,22.7,79.5,79.5,12.1,3.3,2.4,210,0.0,0.0006825795
2024-05-13,20:10,79.1,21.1,79.1,79.1,11.5,1.9,1.4,139.9,0.0,0.0003734389
2024-05-13,20:15,78.6,20,78.6,78.6,11.2,2.2,1.5,123.7,0.0,0.0001847285
2024-05-13,20:20,78.7,19.8,78.7,78.7,11.0,3.3,2.3,118.6,0.0,0.00007831525
2024-05-13,20:25,78.3,21.2,78.3,78.3,11.8,3,1.3,188.2,0.0,0.00004217391
2024-05-13,20:30,77.6,21.4,77.6,77.6,12.2,1.5,1.2,112.6,0.0,0.00001405924
2024-05-13,20:35,77.2,22.2,77.2,77.2,12.8,1.7,1.3,168.6,0.0,0
2024-05-13,20:40,76.5,22.5,76.5,76.5,13.3,1.9,1.5,185.8,0.0,0
2024-05-13,20:45,76,23.8,76.0,76,14.3,3,1.5,168.6,0.0,0
2024-05-13,20:50,75.5,26.4,75.5,75.5,16.2,1.5,1.1,177.6,0.0,0
2024-05-13,20:55,74.6,26.8,74.6,74.6,17.0,1.7,0.9,173,0.0,0
2024-05-13,21:00,74.2,26.8,74.2,74.2,17.2,1.9,1.4,115.4,0.0,0
2024-05-13,21:05,74,27.6,74.0,74,17.8,1.9,1.4,122.8,0.0,0
2024-05-13,21:10,73.6,28,73.6,73.6,18.4,3,1.6,163,0.0,0
2024-05-13,21:15,73.1,27.6,73.1,73.1,18.4,2.2,1.4,212.6,0.0,0
2024-05-13,21:20,73.1,27.6,73.1,73.1,18.4,2.2,1.4,124,0.0,0
2024-05-13,21:25,73.2,28.1,73.2,73.2,18.7,1.7,1.3,187.4,0.0,0
2024-05-13,21:30,73,28.3,73.0,73,19.1,2.2,1.4,195.4,0.0,0
2024-05-13,21:35,72.5,28.6,72.5,72.5,19.6,1.3,1,156.2,0.0,0.00001407125
2024-05-13,21:40,71.9,28.5,71.9,71.9,19.9,1.5,0.8,147.1,0.0,0.00001608186
2024-05-13,21:45,71.7,28.8,71.7,71.7,20.3,2.6,1.8,121.4,0.0,0.00001206172
2024-05-13,21:50,71.2,26.3,71.2,71.2,18.6,2.6,1.7,126.1,0.0,0.00003417604
2024-05-13,21:55,71.3,27.2,71.3,71.3,19.2,1.7,1.2,203.9,0.0,0.0000341788
2024-05-13,22:00,70.9,24.5,70.9,70.9,17.5,1.7,1.1,117.9,0.0,0.00006031991
2024-05-13,22:05,71,25.2,71.0,71,17.9,2.8,1.5,157.7,0.0,0.00005026923
2024-05-13,22:10,71.2,25.4,71.2,71.2,17.9,1.7,1.4,72.5,0.0,0.00005630424
2024-05-13,22:15,71.7,24.3,71.7,71.7,16.8,3.1,2,89,0.0,0.00005429634
2024-05-13,22:20,72.2,23.6,72.2,72.2,16.1,1.9,1.4,66.5,0.0,0.00004022098
2024-05-13,22:25,71.8,27,71.8,71.8,18.8,1.7,0.8,143.8,0.0,0.00004625535
2024-05-13,22:30,70.6,26.7,70.6,70.6,19.3,2.6,2.2,183.5,0.0,0.00004223426
2024-05-13,22:35,70,27.3,70.0,70,20.2,3,2.5,194.4,0.0,0.00005228983
2024-05-13,22:40,69.5,27.2,69.5,69.5,20.4,1.7,0.9,154.1,0.0,0.00005228979
2024-05-13,22:45,68.9,26.5,68.9,68.9,20.3,2.1,1.4,160.4,0.0,0.00005430176
2024-05-13,22:50,68.5,26.9,68.5,68.5,20.9,2.1,1.1,161.4,0.0,0.00005631362
2024-05-13,22:55,67.9,27.6,67.9,67.9,21.9,1.3,0.9,193.5,0.0,0.00005631331
2024-05-13,23:00,67.4,26.8,67.4,67.4,21.6,1,0.1,197.6,0.0,0.00005832434
2024-05-13,23:05,67.3,27.9,67.3,67.3,22.8,1.5,1.2,124.2,0.0,0.00004625895
2024-05-13,23:10,67.6,26.6,67.6,67.6,21.3,3.5,1.5,187.2,0.0,0.00003218074
2024-05-13,23:15,67.1,29.8,67.1,67.1,24.8,4,3.1,207.9,0.0,0.000008045877
2024-05-13,23:20,66.1,30.5,66.1,66.1,26.2,2.6,1.6,169.1,0.0,0.00001408145
2024-05-13,23:25,65.5,29.8,65.5,65.5,26.1,1.9,1.4,115.5,0.0,0.00001005885
2024-05-13,23:30,65.3,29.3,65.3,65.3,25.7,2.1,1.5,146.6,0.0,0.000002011881
2024-05-13,23:35,65.2,29.4,65.2,65.2,25.9,2.1,1.4,182.9,0.0,0.000002012004
2024-05-13,23:40,64.9,29.1,64.9,64.9,25.8,2.1,1.2,198.1,0.0,0.000006036115
2024-05-13,23:45,64.5,28.4,64.5,64.5,25.5,2.8,0.4,205.4,0.0,0
2024-05-13,23:50,65.2,28.9,65.2,65.2,25.5,3.7,2.7,205.2,0.0,0.000004024208
2024-05-13,23:55,65,28.4,65.0,65,25.2,2.6,0.9,189.3,0.0,0
2024-05-14,00:00,64.7,28.9,64.7,64.7,25.9,1.7,1,193.9,0.0,0
2024-05-14,00:05,64.2,27.5,64.2,64.2,24.9,1,0.2,55.3,0.0,0
2024-05-14,00:10,64,27.9,64.0,64,25.5,1,0.1,197.4,0.0,0
2024-05-14,00:15,63.7,31.1,63.7,63.7,29.3,0,0,0,0.0,0
2024-05-14,00:20,63.6,31,63.6,63.6,29.2,0,0,0,0.0,0
2024-05-14,00:25,63.4,29.5,63.4,63.4,27.8,0,0,0,0.0,0
2024-05-14,00:30,63.1,29.3,63.1,63.1,27.8,0,0,0,0.0,0
2024-05-14,00:35,63.2,29.3,63.2,63.2,27.7,0,0,0,0.0,0
2024-05-14,00:40,62.7,29.1,62.7,62.7,28.0,1.3,0.2,31.9,0.0,0
2024-05-14,00:45,63.3,29.8,63.3,63.3,28.2,1.7,0.7,192,0.0,0
2024-05-14,00:50,63.4,29.1,63.4,63.4,27.3,1.5,0.4,171.3,0.0,0
2024-05-14,00:55,63.4,30.7,63.4,63.4,29.1,1,0.3,77.3,0.0,0
2024-05-14,01:00,63.8,31.2,63.8,63.8,29.4,1.7,1.4,89.4,0.0,0
2024-05-14,01:05,63.9,30.6,63.9,63.9,28.5,3.3,2.1,336.8,0.0,0
2024-05-14,01:10,64.2,31,64.2,64.2,28.6,3.1,2.4,249.9,0.0,0
2024-05-14,01:15,63.6,29.1,63.6,63.6,27.1,3.3,2.8,207.4,0.0,0
2024-05-14,01:20,63.2,33,63.2,63.2,32.2,3.5,1.4,196.2,0.0,0
2024-05-14,01:25,62.2,31.3,62.2,62.2,31.3,2.4,1.5,96.3,0.0,0
2024-05-14,01:30,61.7,30.3,61.7,61.7,30.5,1.7,1.3,133.3,0.0,0
2024-05-14,01:35,62.1,31,62.1,62.1,30.9,1.5,1.1,222.2,0.0,0
2024-05-14,01:40,62,29.6,62.0,62,29.3,1.3,0.5,177.7,0.0,0
2024-05-14,01:45,61.7,29.9,61.7,61.7,29.9,1.5,1.1,68.9,0.0,0
2024-05-14,01:50,61.8,34.4,61.8,61.8,35.8,1.9,1.2,84.8,0.0,0
2024-05-14,01:55,61.6,31.8,61.6,61.6,32.4,1.5,0.3,135.4,0.0,0
2024-05-14,02:00,61.8,32.1,61.8,61.8,32.7,2.2,1,200.8,0.0,0
2024-05-14,02:05,61.1,31.9,61.1,61.1,33.2,0,0,0,0.0,0
2024-05-14,02:10,60.7,30.2,60.7,60.7,31.4,0,0,0,0.0,0
2024-05-14,02:15,61,29.2,61.0,61,29.8,2.1,1.3,315.2,0.0,0
2024-05-14,02:20,61.1,28.4,61.1,61.1,28.8,2.1,1.6,13.4,0.0,0
2024-05-14,02:25,61.8,30.1,61.8,61.8,30.2,2.2,1.7,32.2,0.0,0
2024-05-14,02:30,61.9,29.1,61.9,61.9,28.8,2.6,1.3,29.0,0.0,0
2024-05-14,02:35,61.5,28.6,61.5,61.5,28.6,0,0,0,0.0,0
2024-05-14,02:40,61.7,28.9,61.7,61.7,28.7,2.4,1.8,271.7,0.0,0
2024-05-14,02:45,61.5,29.8,61.5,61.5,30.0,2.1,1.6,275.1,0.0,0
2024-05-14,02:50,61.4,28.4,61.4,61.4,28.4,2.1,1.6,311.1,0.0,0
2024-05-14,02:55,61.3,27.4,61.3,61.3,27.4,1.9,1.5,9.9,0.0,0
2024-05-14,03:00,61.3,32.5,61.3,61.3,33.8,1.2,0.6,342.6,0.0,0
2024-05-14,03:05,60.7,27.9,60.7,60.7,28.6,1,0.1,223.9,0.0,0
2024-05-14,03:10,60.4,33,60.4,60.4,35.5,1.9,0.6,190.5,0.0,0
2024-05-14,03:15,60,31.5,60.0,60,33.9,2.4,2.1,187,0.0,0
2024-05-14,03:20,59.9,29,59.9,59.9,30.8,2.1,1.4,172.5,0.0,0
2024-05-14,03:25,59.6,28.6,59.6,59.6,30.7,1.2,0.4,112.6,0.0,0
2024-05-14,03:30,59.5,29.5,59.5,59.5,31.9,1.2,0.4,175.8,0.0,0
2024-05-14,03:35,59.3,31.3,59.3,59.3,34.5,1.5,1.1,229.6,0.0,0
2024-05-14,03:40,59.1,31.5,59.1,59.1,35.0,0.8,0,227.5,0.0,0
2024-05-14,03:45,58.8,30.8,58.8,58.8,34.5,1.3,0.3,232.8,0.0,0
2024-05-14,03:50,58.8,30.7,58.8,58.8,34.4,1.3,0.6,224.8,0.0,0
2024-05-14,03:55,58.8,29.8,58.8,58.8,33.0,3.1,1.4,290.6,0.0,0
2024-05-14,04:00,58.4,31.6,58.4,58.4,36.2,3.5,2.5,308.6,0.0,0
2024-05-14,04:05,58.1,30.1,58.1,58.1,34.4,2.4,1.7,314.1,0.0,0
2024-05-14,04:10,58.2,27.9,58.2,58.2,31.3,1.7,1.2,355.1,0.0,0
2024-05-14,04:15,58.6,30.8,58.6,58.6,34.8,2.1,1.5,357.3,0.0,0
2024-05-14,04:20,59.2,26.2,59.2,59.2,28.1,3.8,2.9,347.7,0.0,0
2024-05-14,04:25,59.6,26.6,59.6,59.6,28.2,3.1,2.5,332.2,0.0,0
2024-05-14,04:30,59.6,25.2,59.6,59.6,26.6,3.3,2.5,305.3,0.0,0
2024-05-14,04:35,59.8,25.5,59.8,59.8,26.8,3,2.3,310.3,0.0,0
2024-05-14,04:40,59.6,27.4,59.6,59.6,29.2,2.8,2.4,314.9,0.0,0
2024-05-14,04:45,59.2,25.9,59.2,59.2,27.8,2.4,2.1,302.3,0.0,0
2024-05-14,04:50,59.3,25.6,59.3,59.3,27.3,2.2,1.7,300.1,0.0,0
2024-05-14,04:55,59.3,25.3,59.3,59.3,27.0,1.9,1.5,266.7,0.0,0
2024-05-14,05:00,59.4,25.9,59.4,59.4,27.6,2.1,1.2,257.6,0.0,0
2024-05-14,05:05,58.9,26.3,58.9,58.9,28.5,1.3,0.3,240.8,0.0,0
2024-05-14,05:10,58.8,25.6,58.8,58.8,27.9,2.2,1,181.3,0.0,0
2024-05-14,05:15,58.5,25.8,58.5,58.5,28.3,2.4,1.8,160.6,0.0,0
2024-05-14,05:20,57.9,27.7,57.9,57.9,31.4,2.8,2.2,171.8,0.0,0
2024-05-14,05:25,56.9,30.9,56.9,56.9,37.1,2.4,1.9,162.1,0.0,0
2024-05-14,05:30,55.4,33.7,55.4,55.4,43.7,4.7,2.9,157.1,0.0,0
2024-05-14,05:35,54.3,35.6,54.3,54.3,49.1,4.6,2.7,173.9,0.0,0
2024-05-14,05:40,53.7,35.8,53.7,53.7,50.6,2.6,2,179.4,0.0,0
2024-05-14,05:45,53.3,35.4,53.3,53.3,50.4,1.7,0.9,159.7,0.0,0.000002013858
2024-05-14,05:50,53.4,35.2,53.4,53.4,50.0,2.2,1.8,207.8,0.0,0.00005034732
2024-05-14,05:55,53.4,35.2,53.4,53.4,50.0,2.4,1.7,200.6,0.0,0.0001309112
2024-05-14,06:00,53.5,35.2,53.5,53.5,49.8,2.2,1.5,188.2,0.0,0.0002980939
2024-05-14,06:05,53.4,35,53.4,53.4,49.6,1.7,0.5,181.4,0.0,0.0006123336
2024-05-14,06:10,53.1,34.6,53.1,53.1,49.3,0,0,0,0.0,0.001049478
2024-05-14,06:15,53.1,33.7,53.1,53.1,47.7,1.7,0.9,208.1,0.0,0.001581313
2024-05-14,06:20,53.5,33.7,53.5,53.5,46.9,1.7,0.9,213.7,0.0,0.002223973
2024-05-14,06:25,53.3,33.7,53.3,53.3,47.2,0,0,0,0.0,0.002900938
2024-05-14,06:30,53.7,33.9,53.7,53.7,46.8,1.5,0.7,196.9,0.0,0.003555745
2024-05-14,06:35,54,33.6,54.0,54,45.9,1.7,1.2,146.3,0.0,0.004861282
2024-05-14,06:40,54.3,33.5,54.3,54.3,45.2,2.1,1.4,93.1,0.0,0.006187032
2024-05-14,06:45,54.8,32.5,54.8,54.8,42.7,2.2,0.9,159.8,0.0,0.007512711
2024-05-14,06:50,55.2,33,55.2,55.2,42.9,2.6,2.1,186.4,0.0,0.006388571
2024-05-14,06:55,55.5,32.9,55.5,55.5,42.2,1.7,1.3,196.5,0.0,0.008028628
2024-05-14,07:00,56,30.8,56.0,56,38.2,2.4,1.3,163.1,0.0,0.007065589
2024-05-14,07:05,56.5,31.8,56.5,56.5,39.0,1.9,1.2,146.7,0.0,0.008143377
2024-05-14,07:10,56.8,31.1,56.8,56.8,37.5,2.8,2.1,160,0.0,0.01460258
2024-05-14,07:15,57.6,30.8,57.6,57.6,35.9,2.8,1.8,139.8,0.0,0.01032921
2024-05-14,07:20,58.3,28.7,58.3,58.3,32.2,2.4,1.8,139.5,0.0,0.01863546
2024-05-14,07:25,59.2,30.1,59.2,59.2,33.1,2.6,2.1,170.6,0.0,0.01836353
2024-05-14,07:30,59.6,31,59.6,59.6,33.7,2.4,1.9,181.9,0.0,0.05018388
2024-05-14,07:35,60.1,33.8,60.1,60.1,37.1,3,2.3,187.3,0.0,0.06502027
2024-05-14,07:40,60.2,33.7,60.2,60.2,36.8,3.3,2.3,175.6,0.0,0.07089879
2024-05-14,07:45,60.2,32.1,60.2,60.2,34.5,3.3,2.3,177.4,0.0,0.07565852
2024-05-14,07:50,60.4,31.7,60.4,60.4,33.8,3,2.2,177.4,0.0,0.08155282
2024-05-14,07:55,60.9,35,60.9,60.9,37.8,2.6,2.1,200.3,0.0,0.08725922
2024-05-14,08:00,61.7,32.1,61.7,61.7,32.7,2.8,2,177.8,0.0,0.09244445
2024-05-14,08:05,62.4,31.1,62.4,62.4,30.6,2.8,2.2,184.4,0.0,0.09751759
2024-05-14,08:10,63.3,31,63.3,63.3,29.6,3,2.1,149.5,0.0,0.1029173
2024-05-14,08:15,64,30.2,64.0,64,28.0,2.4,1.7,154.5,0.0,0.1080529
2024-05-14,08:20,64.6,29.8,64.6,64.6,27.0,2.8,2.2,153.4,0.0,0.1135553
2024-05-14,08:25,65.2,30.2,65.2,65.2,26.8,2.6,1.9,196.7,0.0,0.1188194
2024-05-14,08:30,65.6,30.5,65.6,65.6,26.8,2.6,1.8,183.3,0.0,0.1241257
2024-05-14,08:35,66.7,33.4,66.7,66.7,28.9,2.6,1.6,216.9,0.0,0.1291492
2024-05-14,08:40,67.6,33.3,67.6,67.6,28.0,1.9,1.3,286.1,0.0,0.134405
2024-05-14,08:45,67.9,33.6,67.9,67.9,28.1,2.4,1.6,296.9,0.0,0.1392807
2024-05-14,08:50,68.7,31.6,68.7,68.7,25.2,3.1,1.8,175.8,0.0,0.1439726
2024-05-14,08:55,68.9,32,68.9,68.9,25.4,2.6,1.9,102.7,0.0,0.1493627
2024-05-14,09:00,69.1,34.8,69.1,69.1,28.2,3.7,2.5,211.6,0.0,0.1542405
2024-05-14,09:05,69.3,32.6,69.3,69.3,25.6,4,3,181.9,0.0,0.1591997
2024-05-14,09:10,69.8,32.5,69.8,69.8,25.1,5.5,3.3,203.8,0.0,0.1639702
2024-05-14,09:15,70.2,31.7,70.2,70.2,24.0,4,2.9,188.9,0.0,0.1690093
2024-05-14,09:20,70.9,31.9,70.9,70.9,23.6,3.7,2.4,183.4,0.0,0.1738021
2024-05-14,09:25,71.7,30.4,71.7,71.7,21.7,3.7,2.3,171.2,0.0,0.178464
2024-05-14,09:30,72.8,31.4,72.8,72.8,21.7,2.6,1.6,122.1,0.0,0.1832513
2024-05-14,09:35,73.8,32.1,73.8,73.8,21.6,0.8,0.1,247.2,0.0,0.188148
2024-05-14,09:40,74.4,36,74.4,74.4,24.7,0.8,0.2,203.2,0.0,0.1916509
2024-05-14,09:45,74.7,32.2,74.7,74.7,21.0,3.1,1,159.4,0.0,0.1957071
2024-05-14,09:50,75.5,32.1,75.5,75.5,20.5,3,2,284.5,0.0,0.2005703
2024-05-14,09:55,76.2,32.1,76.2,76.2,19.9,3.5,2.1,169,0.0,0.2052436
2024-05-14,10:00,76.7,31,76.7,76.7,18.8,3.7,2.1,163.5,0.0,0.2095898
2024-05-14,10:05,77,29.8,77.0,77,17.6,4.2,2.5,336.2,0.0,0.2130383
2024-05-14,10:10,76.9,40.7,76.9,76.9,27.4,3.5,2.5,29.7,0.0,0.2175618
2024-05-14,10:15,77.7,33.3,77.7,77.7,19.9,3.3,2.1,304.6,0.0,0.2212142
2024-05-14,10:20,78,28.1,78.0,78,15.9,4,2.6,257.7,0.0,0.225491
2024-05-14,10:25,77.2,27,77.2,77.2,15.7,5.8,3,222.2,0.0,0.2270838
2024-05-14,10:30,78.6,30.4,78.6,78.6,17.2,3.7,2.5,99.1,0.0,0.1133304
2024-05-14,10:35,79.4,30.5,79.4,79.4,16.9,4.6,2.9,108.1,0.0,0.1458131
2024-05-14,10:40,78.9,37.8,78.9,78.9,22.9,4,2.7,260.9,0.0,0.06119666
2024-05-14,10:45,79.8,29.5,79.8,79.8,15.9,4.2,2.7,54.1,0.0,0.2429875
2024-05-14,10:50,80.9,33.2,80.9,80.9,17.9,5.1,2.9,175.4,0.0,0.247268
2024-05-14,10:55,80.5,30.4,80.5,80.5,16.1,5.5,3.3,241.9,0.0,0.2503667
2024-05-14,11:00,80.7,29.8,80.7,80.7,15.7,3.8,2.9,241.6,0.0,0.2539088
2024-05-14,11:05,80.1,28.5,80.1,80.1,15.2,5.5,3.9,170.1,0.0,0.2572291
2024-05-14,11:10,81.5,31.1,81.5,81.5,16.1,4.2,2.7,164.3,0.0,0.2600899
2024-05-14,11:15,80.7,28.5,80.7,80.7,14.9,5.5,3.9,260.3,0.0,0.2630832
2024-05-14,11:20,81.5,29.8,81.5,81.5,15.3,5.1,3.1,274.8,0.0,0.2670414
2024-05-14,11:25,82,30.7,82.0,82,15.6,6,3.3,302.3,0.0,0.2708055
2024-05-14,11:30,82,29.3,82.0,82,14.7,5.8,3.4,238.9,0.0,0.2751023
2024-05-14,11:35,84,29.2,84.0,84,13.7,4.9,3.4,166.1,0.0,0.2785618
2024-05-14,11:40,84,28.3,84.0,84,13.2,4.6,3.8,159.6,0.0,0.2834957
2024-05-14,11:45,84.4,30.3,84.4,84.4,14.2,5.1,2.4,128.3,0.0,0.2065683
2024-05-14,11:50,84.6,29.4,84.6,84.6,13.6,4.2,2.3,199.3,0.0,0.2419595
2024-05-14,11:55,83.9,34.8,83.9,83.9,17.2,6,4,216.4,0.0,0.2676136
2024-05-14,12:00,84,29.6,84.0,84,14.0,6,3.4,219.8,0.0,0.2857043
2024-05-14,12:05,84.2,27.6,84.2,84.2,12.8,6.2,3.1,237,0.0,0.2878172
2024-05-14,12:10,84.7,29.3,84.7,84.7,13.5,5.6,3.3,138.9,0.0,0.286864
2024-05-14,12:15,85.7,26.2,85.7,85.7,11.5,5.6,2.4,102.9,0.0,0.2868099
2024-05-14,12:20,86.8,22.1,86.8,86.8,9.4,5.5,3.2,175.7,0.0,0.2886702
2024-05-14,12:25,85.8,28.6,85.8,85.8,12.6,6.3,3.1,104,0.0,0.2895946
2024-05-14,12:30,85.3,27.7,85.3,85.3,12.4,7.2,4.8,204.4,0.0,0.2909554
2024-05-14,12:35,86.2,26,86.2,86.2,11.2,6,3.9,234.7,0.0,0.2908519
2024-05-14,12:40,85,30.4,85.0,85,14.0,5.5,3.6,328.7,0.0,0.2901394
2024-05-14,12:45,86.2,27.5,86.2,86.2,11.9,7.4,3.1,298.8,0.0,0.2913235
2024-05-14,12:50,86.6,22.6,86.6,86.6,9.6,6,3.8,131.6,0.0,0.2922543
2024-05-14,12:55,86.1,24.2,86.1,86.1,10.4,6,4.3,84.9,0.0,0.2893663
2024-05-14,13:00,87.1,25.4,87.1,87.1,10.6,6,3.6,112.8,0.0,0.2924471
2024-05-14,13:05,86.8,28.7,86.8,86.8,12.3,5.6,3.9,103.6,0.0,0.292816
2024-05-14,13:10,87.7,27.3,87.7,87.7,11.3,4.6,2.9,47.4,0.0,0.2946719
2024-05-14,13:15,87.4,23.1,87.4,87.4,9.6,10.6,6.9,234,0.0,0.2975627
2024-05-14,13:20,87,23.3,87.0,87,9.8,8.3,4.4,239.8,0.0,0.2922189
2024-05-14,13:25,86,21.6,86.0,86,9.4,11.3,6.1,168.6,0.0,0.2874925
2024-05-14,13:30,88.4,23.6,88.4,88.4,9.5,5.6,2.9,156.1,0.0,0.3011553
2024-05-14,13:35,87.3,24.6,87.3,87.3,10.2,8.8,5,147.6,0.0,0.3053002
2024-05-14,13:40,88,25.9,88.0,88,10.6,8.8,4.8,200.1,0.0,0.2949846
2024-05-14,13:45,88,20.6,88.0,88,8.5,11.3,7.1,217.2,0.0,0.2924727
2024-05-14,13:50,86.8,24.2,86.8,86.8,10.2,8.5,4.7,180.2,0.0,0.2869756
2024-05-14,13:55,86.6,23.7,86.6,86.6,10.1,10.3,5.6,252.9,0.0,0.3021456
2024-05-14,14:00,86.3,23.2,86.3,86.3,10.0,11.5,6.2,268.1,0.0,0.279054
2024-05-14,14:05,87.1,37,87.1,87.1,17.0,7.6,4.4,248.6,0.0,0.2994103
2024-05-14,14:10,87.8,24.2,87.8,87.8,9.9,9,5.3,229.4,0.0,0.2976397
2024-05-14,14:15,88.1,21.3,88.1,88.1,8.7,9.7,5.4,201.1,0.0,0.2854719
2024-05-14,14:20,88.6,21.7,88.6,88.6,8.7,8.8,6,168.1,0.0,0.2892104
2024-05-14,14:25,88.5,24.2,88.5,88.5,9.7,9.6,6.3,148.1,0.0,0.2139948
2024-05-14,14:30,88,26.6,88.0,88,10.9,8.1,5.8,166.5,0.0,0.2949107
2024-05-14,14:35,88.2,21.3,88.2,88.2,8.6,7.1,3.9,139.1,0.0,0.1695332
2024-05-14,14:40,87.2,20.8,87.2,87.2,8.7,7.2,4.6,131.2,0.0,0.1444096
2024-05-14,14:45,87.5,27.9,87.5,87.5,11.7,5.6,3.1,23.1,0.0,0.2909299
2024-05-14,14:50,86.4,22.9,86.4,86.4,9.8,4.6,3.2,307.8,0.0,0.2848155
2024-05-14,14:55,87.6,20.4,87.6,87.6,8.5,7.6,3.9,228.9,0.0,0.09048142
2024-05-14,15:00,86.8,18.9,86.8,86.8,8.2,7.8,4.8,195.2,0.0,0.06322102
2024-05-14,15:05,87.9,17.6,87.9,87.9,7.5,6.9,4.6,223.4,0.0,0.2220967
2024-05-14,15:10,87.3,19.3,87.3,87.3,8.2,6.5,3.9,133.9,0.0,0.08208032
2024-05-14,15:15,87.1,20.6,87.1,87.1,8.7,4.9,3.3,155,0.0,0.0635922
2024-05-14,15:20,87,21,87.0,87,8.9,7.6,4.3,182,0.0,0.1634647
2024-05-14,15:25,89.2,28.5,89.2,89.2,11.3,6.3,4,160.9,0.0,0.3052869
2024-05-14,15:30,90.2,22.8,90.2,90.2,8.6,7.6,4.8,168.4,0.0,0.2918343
2024-05-14,15:35,89.9,23,89.9,89.9,8.8,10.5,5.1,197.4,0.0,0.2769985
2024-05-14,15:40,89.8,18.5,89.8,89.8,7.3,6.2,3.7,195.9,0.0,0.09931229
2024-05-14,15:45,88.6,19.8,88.6,88.6,8.0,6.5,4.2,156.6,0.0,0.09987896
2024-05-14,15:50,88.1,16.6,88.1,88.1,7.1,6,4.1,146.6,0.0,0.09722745
2024-05-14,15:55,87.5,21.7,87.5,87.5,9.0,4,3.1,133.4,0.0,0.1133058
2024-05-14,16:00,88.9,21.5,88.9,88.9,8.5,7.6,4.4,194.3,0.0,0.2540157
2024-05-14,16:05,89.5,20.3,89.5,89.5,7.9,15.3,6.9,211.2,0.0,0.2458915
2024-05-14,16:10,89.5,16,89.5,89.5,6.6,13.3,7.4,239.8,0.0,0.2384949
2024-05-14,16:15,89.3,20.3,89.3,89.3,8.0,12.1,7.6,214,0.0,0.2291761
2024-05-14,16:20,87.8,18.4,87.8,87.8,7.7,10.8,7,233.8,0.0,0.05586895
2024-05-14,16:25,87.9,14.1,87.9,87.9,6.4,7.4,3.8,209.4,0.0,0.1825971
2024-05-14,16:30,88.9,22.5,88.9,88.9,8.9,9.2,6.2,218.7,0.0,0.2077342
2024-05-14,16:35,88.4,21.2,88.4,88.4,8.5,12.8,8.4,218.1,0.0,0.1409475
2024-05-14,16:40,88.1,18.5,88.1,88.1,7.7,8.1,5.3,185.6,0.0,0.1365519
2024-05-14,16:45,87.8,20.8,87.8,87.8,8.6,8.5,5.1,219.3,0.0,0.1194062
2024-05-14,16:50,87.8,21.4,87.8,87.8,8.8,6.7,4.7,208.1,0.0,0.09439747
2024-05-14,16:55,88.8,17.7,88.8,88.8,7.3,7.1,4.3,160.9,0.0,0.1323674
2024-05-14,17:00,87.9,22.1,87.9,87.9,9.0,8.8,5.1,192.7,0.0,0.08059321
2024-05-14,17:05,87.2,17,87.2,87.2,7.4,11.2,8.2,236.5,0.0,0.04832837
2024-05-14,17:10,86.8,17.6,86.8,86.8,7.7,9.2,6.9,249.3,0.0,0.04742092
2024-05-14,17:15,87.2,19.9,87.2,87.2,8.4,8,4.5,195.1,0.0,0.05701382
2024-05-14,17:20,88.2,21.1,88.2,88.2,8.6,7.8,3.9,210.2,0.0,0.1418558
2024-05-14,17:25,88.5,24.8,88.5,88.5,9.9,9.6,5.7,198.9,0.0,0.1339424
2024-05-14,17:30,87.6,24.9,87.6,87.6,10.3,9.4,6,212.1,0.0,0.0485795
2024-05-14,17:35,87.2,22.2,87.2,87.2,9.3,7.1,5,196.2,0.0,0.08173439
2024-05-14,17:40,88.2,23.2,88.2,88.2,9.4,7.2,3.9,186.2,0.0,0.129526
2024-05-14,17:45,89.1,21.2,89.1,89.1,8.4,7.2,4.7,189,0.0,0.121361
2024-05-14,17:50,89.5,20.3,89.5,89.5,8.0,5.3,3.6,159.1,0.0,0.1376479
2024-05-14,17:55,89.6,23.9,89.6,89.6,9.2,5.3,3.4,185.2,0.0,0.1128772
2024-05-14,18:00,89.2,21.8,89.2,89.2,8.5,8.3,4.6,203.3,0.0,0.1205311
2024-05-14,18:05,89.1,18.7,89.1,89.1,7.5,8.5,4.3,206,0.0,0.1149139
2024-05-14,18:10,87.5,18.1,87.5,87.5,7.7,9,6,231,0.0,0.03670814
2024-05-14,18:15,87.4,18.8,87.4,87.4,8.0,7.8,4,214.7,0.0,0.06763522
2024-05-14,18:20,87.4,16.9,87.4,87.4,7.4,7.2,4.4,252.2,0.0,0.04731278
2024-05-14,18:25,87.3,18.5,87.3,87.3,7.9,6.5,4.3,199.7,0.0,0.05094015
2024-05-14,18:30,88,21.2,88.0,88,8.7,5.5,2.7,203.1,0.0,0.05005
2024-05-14,18:35,88,16.6,88.0,88,7.1,4.7,2.9,192.1,0.0,0.06163299
2024-05-14,18:40,88.4,19.3,88.4,88.4,7.9,4,2.3,187.3,0.0,0.0664654
2024-05-14,18:45,88.5,18.5,88.5,88.5,7.6,3.5,2.3,163.5,0.0,0.0610631
2024-05-14,18:50,88.6,23.4,88.6,88.6,9.4,3.3,2.4,179.2,0.0,0.05677719
2024-05-14,18:55,88.1,19.2,88.1,88.1,7.9,5.6,3.5,185.1,0.0,0.05233417
2024-05-14,19:00,87.6,23.6,87.6,87.6,9.7,4.7,3.3,201.8,0.0,0.04639765
2024-05-14,19:05,87.3,22.8,87.3,87.3,9.5,6,3.5,187.4,0.0,0.04143537
2024-05-14,19:10,87,17.9,87.0,87,7.8,5.6,4,199.8,0.0,0.03649347
2024-05-14,19:15,87,20.9,87.0,87,8.8,5.5,3.2,207.7,0.0,0.03184037
2024-05-14,19:20,86.5,22.4,86.5,86.5,9.6,5.1,3.4,212.6,0.0,0.02632415
2024-05-14,19:25,86.1,20.9,86.1,86.1,9.1,3.7,2.4,192.5,0.0,0.02093668
2024-05-14,19:30,86.1,22.3,86.1,86.1,9.7,2.4,1.1,164.8,0.0,0.0158462
2024-05-14,19:35,86.1,22.2,86.1,86.1,9.6,1.5,0.9,174.2,0.0,0.0117624
2024-05-14,19:40,85.7,20.8,85.7,85.7,9.2,1.5,0.6,179.1,0.0,0.007668074
2024-05-14,19:45,85,18.5,85.0,85,8.5,3.5,2.4,197.6,0.0,0.005262727
2024-05-14,19:50,84.5,21.2,84.5,84.5,9.7,2.8,1.6,200.4,0.0,0.003525349
2024-05-14,19:55,83.8,21.2,83.8,83.8,9.9,4.2,2.6,232.6,0.0,0.002403908
2024-05-14,20:00,83.2,21.7,83.2,83.2,10.3,2.2,1.8,186.8,0.0,0.001404771
2024-05-14,20:05,82.3,23.6,82.3,82.3,11.5,2.1,1.5,157.2,0.0,0.0008469521
2024-05-14,20:10,81.2,23.4,81.2,81.2,11.8,1.3,1,157.4,0.0,0.0004636504
2024-05-14,20:15,80.2,24.8,80.2,80.2,13.0,1.3,0.4,107.9,0.0,0.0002328463
2024-05-14,20:20,79.4,26.1,79.4,79.4,14.0,0.8,0.1,76.5,0.0,0.0001003734
2024-05-14,20:25,78.8,24.5,78.8,78.8,13.4,1.9,1.4,123.4,0.0,0.00006022855
2024-05-14,20:30,79.1,26.2,79.1,79.1,14.3,2.1,1.7,129.2,0.0,0.00006023412
2024-05-14,20:35,78.6,24.6,78.6,78.6,13.5,1.9,1.4,131.9,0.0,0.00003212847
2024-05-14,20:40,78.4,24.9,78.4,78.4,13.8,1.7,1,124.8,0.0,0.00003213111
2024-05-14,20:45,78.1,24.4,78.1,78.1,13.6,1.3,0.9,124.5,0.0,0.000008033381
2024-05-14,20:50,77.5,25.2,77.5,77.5,14.4,1.2,0.6,127.6,0.0,0
2024-05-14,20:55,77,26.6,77.0,77,15.5,1.5,1,92.7,0.0,0
2024-05-14,21:00,76.7,28.5,76.7,76.7,16.9,1.9,1.5,104.9,0.0,0
2024-05-14,21:05,76.4,26.9,76.4,76.4,16.0,1.9,1.5,113,0.0,0
2024-05-14,21:10,76,27,76.0,76,16.3,2.1,1.5,135.1,0.0,0
2024-05-14,21:15,76,25.8,76.0,76,15.5,2.6,1.9,130.3,0.0,0
2024-05-14,21:20,76.2,27.1,76.2,76.2,16.3,2.4,2,150.6,0.0,0
2024-05-14,21:25,75.3,25.2,75.3,75.3,15.5,2.1,1.9,154.8,0.0,0
2024-05-14,21:30,75.5,25.1,75.5,75.5,15.3,2.6,1.9,107.1,0.0,0
2024-05-14,21:35,75.8,25.4,75.8,75.8,15.4,2.4,1.8,120.2,0.0,0
2024-05-14,21:40,75.7,25.8,75.7,75.7,15.7,2.1,1.4,150.5,0.0,0
2024-05-14,21:45,75.1,24.9,75.1,75.1,15.4,1.5,1,209.4,0.0,0
2024-05-14,21:50,74.4,25.1,74.4,74.4,15.9,1.9,1,138.5,0.0,0
2024-05-14,21:55,74.5,24.1,74.5,74.5,15.2,2.1,1.8,141.7,0.0,0
2024-05-14,22:00,73.9,24.8,73.9,73.9,16.0,2.4,1.2,193.1,0.0,0
2024-05-14,22:05,73.6,24,73.6,73.6,15.6,2.6,1.7,146.1,0.0,0
2024-05-14,22:10,73.8,22.8,73.8,73.8,14.7,2.2,1.9,197.2,0.0,0.00000201034
2024-05-14,22:15,73.7,23.8,73.7,73.7,15.4,1.9,1.6,143.4,0.0,0
2024-05-14,22:20,73.4,24.4,73.4,73.4,16.0,1.5,1.2,120.5,0.0,0
2024-05-14,22:25,73.2,24.7,73.2,73.2,16.3,1.7,0.8,207,0.0,0
2024-05-14,22:30,73,25.8,73.0,73,17.1,1,0.2,213.2,0.0,0
2024-05-14,22:35,73,28.5,73.0,73,19.2,2.2,1.5,124.4,0.0,0.0000160854
2024-05-14,22:40,72.6,26.9,72.6,72.6,18.2,3.3,1.5,273.1,0.0,0.00001407533
2024-05-14,22:45,72.2,27.2,72.2,72.2,18.7,6.2,3.7,257.9,0.0,0.000002010769
2024-05-14,22:50,72.8,24.9,72.8,72.8,16.6,3.8,2.2,151.5,0.0,0
2024-05-14,22:55,73.9,22.3,73.9,73.9,14.4,4.9,2.5,66.1,0.0,0.000002010833
2024-05-14,23:00,74.9,18.6,74.9,74.9,11.9,5.5,3.5,131.3,0.0,0
2024-05-14,23:05,75.5,26.9,75.5,75.5,16.5,5.6,3.3,233.2,0.0,0
2024-05-14,23:10,73.4,23.8,73.4,73.4,15.6,6.5,3.6,343.1,0.0,0
2024-05-14,23:15,74.1,24.3,74.1,74.1,15.5,3.3,1.7,81.3,0.0,0
2024-05-14,23:20,74.3,24.4,74.3,74.3,15.5,2.1,1.8,156.9,0.0,0
2024-05-14,23:25,73,26.6,73.0,73,17.7,4,2.5,182.2,0.0,0
2024-05-14,23:30,71.9,26.8,71.9,71.9,18.6,3.5,2.3,226.1,0.0,0
2024-05-14,23:35,71.7,26.7,71.7,71.7,18.6,1.9,1.2,206.9,0.0,0
2024-05-14,23:40,71.3,25.8,71.3,71.3,18.1,2.1,1.3,110.4,0.0,0
2024-05-14,23:45,71.8,25.2,71.8,71.8,17.4,3,2.6,140.9,0.0,0
2024-05-14,23:50,72,25.8,72.0,72,17.8,3,2.3,142.4,0.0,0.000004021619
2024-05-14,23:55,71.9,26.3,71.9,71.9,18.2,2.2,1.6,126.5,0.0,0.000002010876
2024-05-15,00:00,71.6,25.6,71.6,71.6,17.8,2.2,1.6,155.7,0.0,0.000002010945
2024-05-15,00:05,71.5,24.7,71.5,71.5,17.2,1.9,1.3,157.2,0.0,0.000004021965
2024-05-15,00:10,71.5,24.9,71.5,71.5,17.3,2.1,1.5,161.6,0.0,0
2024-05-15,00:15,71.3,27.3,71.3,71.3,19.3,3.1,1.8,214.7,0.0,0.000002011001
2024-05-15,00:20,71.3,24.2,71.3,71.3,17.0,4.4,2.9,279.5,0.0,0.000002011039
2024-05-15,00:25,72.2,23.1,72.2,72.2,15.8,4.9,2.2,229.1,0.0,0.000008044206
2024-05-15,00:30,71.4,26,71.4,71.4,18.3,2.6,2.2,194,0.0,0.000006033192
2024-05-15,00:35,70.8,23.6,70.8,70.8,16.9,4,2.1,219.2,0.0,0.00002011098
2024-05-15,00:40,71.5,22.7,71.5,71.5,15.8,5.1,3.3,258.1,0.0,0.000006033381
2024-05-15,00:45,71.9,23.1,71.9,71.9,15.9,4.4,3.3,267.9,0.0,0.000004022324
2024-05-15,00:50,71.6,23.4,71.6,71.6,16.2,4.2,3.2,284.2,0.0,0.000006033376
2024-05-15,00:55,71.9,22.8,71.9,71.9,15.7,3.7,2.5,275.8,0.0,0.00001810025
2024-05-15,01:00,72.5,21.9,72.5,72.5,14.8,3.3,2.8,18.7,0.0,0.000008044751